Wind_Speed
4 4 4 5 7 8 11 10 3 2 4 5 4 3 4 4 4 6 6 9 11 8 5 5 3 4 6 7 10 11 12 11 11 12 12 13 14 14 13 13 14 14 14 16 17 17 17 17 17 16 15 14 14 14 13 12 11 10 10 9 8 7 7 10 13 14 14 13 13 13 13 13 12 11 11 10 10 10 12 13 14 18 20 21 23 24
6 4 5 7 8 11 12 10 6 4 4 4 3 4 4 3 4 6 5 8 10 6 4 5 4 5 6 7 10 12 11 11 12 13 13 13 14 14 14 14 14 14 14 16 18 18 17 17 17 16 15 15 15 15 14 13 12 10 10 9 8 7 9 11 12 13 14 13 13 13 13 13 12 11 10 10 9 9 11 13 15 18 20 22 23 25
5 5 9 12 11 13 14 13 11 6 4 3 3 3 4 4 6 6 5 7 8 5 3 6 6 4 7 7 10 11 11 11 13 14 14 15 15 15 16 16 15 15 15 17 19 19 18 17 17 16 16 16 15 15 14 13 12 11 12 10 7 8 9 10 11 13 13 12 12 13 12 12 11 10 10 9 8 8 10 13 15 18 20 21 23 25
5 7 13 16 11 10 11 12 10 6 5 3 2 2 4 6 5 4 5 8 8 4 1 4 5 4 7 7 8 11 12 11 12 14 14 15 16 16 16 17 17 17 18 19 19 19 18 17 17 17 16 16 15 15 15 14 14 12 12 11 9 9 10 10 11 12 13 13 13 12 12 11 10 10 9 9 7 8 9 12 14 16 19 20 22 24
9 6 8 10 8 9 9 8 7 4 3 2 2 1 3 6 4 2 7 8 7 6 4 4 6 5 8 9 9 10 12 12 13 14 15 16 16 16 16 17 18 18 19 20 21 20 19 18 18 17 17 17 17 16 16 16 15 13 11 11 10 11 10 10 11 11 12 13 13 12 11 11 11 9 8 7 6 6 8 10 12 15 18 20 21 24
6 4 4 6 7 9 7 6 8 5 3 3 4 0 2 5 4 6 9 8 5 5 5 5 5 3 8 10 10 10 11 13 14 16 17 18 18 17 17 18 18 19 19 21 22 21 20 19 19 18 18 18 17 16 16 16 16 14 12 11 11 12 11 11 11 11 12 12 13 12 12 11 11 10 9 8 6 5 6 8 10 14 17 18 20 22
1 2 4 6 6 7 7 5 9 9 5 3 4 1 3 5 5 7 9 6 2 1 4 5 5 0 5 9 11 12 13 14 15 16 18 20 20 20 19 19 19 19 20 21 20 20 20 19 19 19 19 19 18 16 16 16 16 14 13 12 12 13 13 12 11 11 12 12 13 12 12 12 11 10 9 8 7 6 6 7 10 13 16 17 18 20
2 3 4 5 6 7 6 3 7 9 5 2 4 4 6 6 6 7 6 4 1 1 4 6 5 4 3 6 10 13 13 14 15 15 17 20 22 22 21 20 20 20 20 20 20 20 20 20 20 20 19 19 18 17 16 16 16 16 14 13 13 14 14 13 12 12 12 12 14 13 12 11 11 9 8 7 6 5 6 7 9 11 14 16 17 18
3 1 2 2 6 6 2 4 5 7 2 4 5 5 6 6 5 5 4 1 1 2 4 5 3 5 1 6 8 12 12 13 16 16 17 21 23 23 23 22 21 21 21 21 21 21 21 21 21 20 19 18 19 18 17 17 16 16 15 13 14 15 15 14 13 12 13 13 14 14 13 12 11 9 7 6 5 5 5 6 7 10 12 15 16 17
1 4 5 6 4 3 5 5 4 3 3 6 7 6 6 5 4 3 2 1 1 3 0 4 3 5 0 5 6 9 10 11 14 14 16 21 24 24 23 23 23 22 22 21 21 21 21 22 21 20 18 18 19 18 17 17 17 16 16 14 15 16 15 15 14 14 13 13 14 14 14 13 12 10 8 7 5 5 5 5 7 9 11 13 15 15
6 3 3 4 2 5 9 8 5 4 7 10 9 7 7 4 3 2 1 1 3 2 3 3 2 4 2 4 6 6 7 9 10 11 15 19 23 24 24 24 24 23 23 22 21 21 21 22 21 20 19 18 18 18 17 17 17 17 17 15 15 16 16 16 15 15 14 14 15 14 14 13 12 10 9 7 6 5 4 3 5 7 9 12 13 14
4 2 2 1 3 7 11 9 6 8 10 9 6 5 4 3 3 3 2 3 3 2 4 2 1 4 3 1 3 5 6 7 8 9 14 19 23 25 25 24 24 24 23 22 22 22 21 22 21 21 20 19 18 18 18 18 17 18 17 16 15 17 18 17 17 16 15 15 15 15 14 13 12 10 9 8 6 5 3 2 3 6 8 10 12 12
4 3 4 5 5 7 7 7 6 7 7 5 3 4 3 1 2 2 2 2 1 3 3 0 2 3 3 2 2 4 6 6 6 7 11 18 23 25 25 25 25 24 24 23 22 22 22 22 22 22 21 20 19 19 19 19 19 18 18 17 16 17 18 18 18 18 17 16 16 16 15 14 12 11 10 9 7 6 5 3 1 4 6 9 10 10
5 4 6 6 5 7 4 2 4 5 5 5 3 3 3 1 0 1 1 1 1 3 3 1 3 3 2 2 2 2 3 5 6 7 9 15 21 25 26 26 25 24 24 23 22 22 22 23 23 23 22 21 20 20 20 20 20 19 18 18 17 17 19 19 19 20 18 17 17 17 16 14 13 12 11 10 8 7 6 4 1 1 4 7 9 9
2 3 7 5 3 7 6 2 1 2 4 3 1 2 3 1 1 2 2 2 3 2 2 3 3 3 1 2 2 2 2 3 5 8 9 11 17 22 25 25 25 25 25 24 23 22 22 22 23 23 23 22 21 22 22 21 21 20 18 19 18 18 19 20 20 20 19 18 17 17 17 15 13 12 12 11 10 8 7 4 3 2 2 5 7 7
1 3 5 3 2 6 7 1 0 2 3 2 1 2 1 2 2 2 3 4 4 3 1 2 3 2 3 0 3 3 4 4 5 8 11 12 14 19 23 25 25 25 25 24 23 23 22 22 23 23 24 23 21 22 23 22 22 21 19 19 19 19 19 20 21 21 20 19 17 18 17 16 14 13 12 12 11 10 8 6 5 3 1 3 5 5
2 4 6 5 3 4 3 3 3 1 1 3 3 1 2 2 3 1 1 1 3 2 1 1 2 1 3 1 3 3 3 3 4 8 12 13 14 16 20 23 24 25 25 25 24 23 23 23 24 24 24 24 22 22 23 23 22 22 20 19 20 20 19 20 22 21 20 19 18 18 18 17 16 15 14 13 12 10 9 6 5 4 0 2 3 4
1 4 6 4 5 5 2 4 5 0 2 3 2 3 4 0 2 2 1 2 2 1 2 2 3 2 2 2 4 4 3 3 4 7 11 13 15 16 17 21 23 24 24 25 24 23 23 23 24 25 24 24 23 22 23 23 22 22 20 19 20 20 20 21 23 22 21 20 19 19 19 18 18 16 15 14 12 11 9 7 5 4 2 0 2 3
2 2 6 3 3 7 5 6 5 2 2 2 2 2 2 1 0 1 2 2 2 3 2 2 2 2 3 3 3 3 3 3 4 7 10 12 15 16 17 19 22 23 23 24 24 23 23 24 24 25 24 23 24 23 22 22 22 21 20 19 19 20 20 21 22 22 22 21 20 20 19 20 19 18 16 14 13 11 10 8 6 5 3 2 3 3
1 2 3 4 4 6 6 5 3 3 2 2 1 3 2 3 2 1 2 3 3 3 3 3 2 2 4 5 3 2 3 3 5 7 8 11 14 15 16 19 21 23 24 24 24 23 23 24 25 26 25 23 23 23 22 22 23 22 21 20 20 20 20 21 22 22 22 21 21 20 20 20 20 19 16 15 13 12 10 9 9 7 4 3 4 4
2 3 1 5 5 5 5 4 3 4 4 4 4 4 2 1 1 1 1 2 3 3 2 3 3 3 6 4 3 3 2 2 5 6 6 9 12 14 15 18 20 23 24 24 24 24 24 25 26 25 25 23 23 23 22 22 23 22 22 21 21 21 22 22 22 22 22 22 21 21 21 21 21 20 17 15 14 13 11 10 11 9 6 4 5 5
2 3 0 3 5 5 4 3 3 3 4 4 3 3 3 2 2 3 2 1 2 3 3 3 4 3 5 4 3 3 1 2 4 5 6 8 12 14 14 16 19 22 24 25 25 24 24 25 26 26 25 24 23 23 23 23 23 23 22 22 22 22 23 24 23 22 22 22 23 23 22 23 23 21 18 16 15 14 13 12 12 9 7 6 7 6
1 3 2 3 3 2 4 3 1 3 4 5 4 2 2 2 3 4 2 0 1 2 1 3 3 2 5 3 1 1 1 1 2 5 6 7 11 13 14 15 18 20 22 23 24 24 24 25 27 26 25 25 24 24 24 24 24 24 23 23 23 24 24 24 23 23 23 24 25 25 24 24 23 21 19 18 17 16 14 14 13 10 8 9 8 7
1 3 3 3 3 3 4 5 3 1 4 5 4 3 4 3 3 4 4 3 3 3 2 3 3 1 3 1 1 1 2 2 2 5 7 8 10 12 13 15 16 17 19 21 22 23 22 24 27 26 25 25 25 25 26 26 25 24 24 24 24 25 25 24 23 23 23 24 26 27 26 25 23 22 20 19 18 17 16 15 14 12 10 11 10 9
3 2 3 4 4 5 5 5 4 2 4 4 3 3 5 5 3 3 3 3 4 4 4 5 3 1 2 3 3 1 2 2 2 4 6 8 10 12 13 14 15 16 18 19 21 22 22 24 26 26 26 26 25 26 27 28 27 26 25 25 25 25 26 25 24 23 23 25 27 28 27 26 25 23 22 20 19 18 17 16 15 13 12 12 12 11
2 2 4 5 4 4 3 2 1 0 2 3 2 3 6 7 6 3 3 4 5 3 3 6 5 2 2 2 1 1 1 2 2 4 6 7 8 11 13 14 15 17 18 20 21 22 24 26 27 27 27 27 26 26 27 28 28 27 26 26 26 25 26 27 26 25 24 25 27 28 28 28 26 24 23 21 19 18 18 17 16 15 14 14 13 12
3 2 3 4 4 4 4 3 4 4 2 2 2 4 5 6 7 5 4 4 4 3 4 6 5 5 6 6 3 3 2 2 3 4 6 7 8 10 12 13 15 16 18 20 21 22 24 27 28 27 28 28 27 27 28 28 29 28 27 27 26 26 27 28 28 27 26 27 27 28 28 28 27 25 23 21 20 20 19 18 17 17 16 15 15 14
4 3 2 2 4 4 5 4 2 3 5 4 3 2 3 5 7 7 7 4 4 5 5 2 3 7 8 7 6 4 3 1 2 4 5 7 9 10 11 12 14 15 17 19 21 22 25 28 28 29 30 30 28 28 28 28 29 29 29 28 27 27 28 29 29 29 29 29 29 29 29 28 27 25 24 23 22 21 20 19 19 18 17 17 17 17
4 2 2 2 3 1 2 2 1 3 4 5 6 5 4 5 7 8 9 7 5 7 7 5 4 8 9 8 7 4 3 2 0 3 5 7 8 9 10 12 14 15 17 19 21 23 25 28 30 31 32 32 31 30 29 28 29 29 30 29 28 28 28 29 30 31 30 31 31 31 30 28 27 26 25 24 23 23 22 20 20 20 19 19 19 19
3 1 2 3 4 3 3 2 1 3 5 5 7 6 5 6 8 9 10 8 6 10 11 8 8 10 8 9 8 3 1 3 1 3 5 7 8 9 10 12 14 15 17 19 21 23 24 26 29 32 34 33 32 32 31 30 29 30 31 30 29 28 28 30 31 32 31 32 32 31 30 29 28 27 26 26 25 24 23 22 21 21 21 20 20 20
2 0 1 3 5 4 4 2 1 3 5 6 7 5 4 7 8 8 8 6 6 10 10 9 10 9 4 5 7 3 1 3 4 5 6 7 8 9 10 11 12 14 16 18 19 21 22 23 26 29 33 34 34 34 33 32 31 30 31 31 30 29 28 29 31 32 32 32 31 31 30 29 28 28 27 27 26 24 24 23 23 23 22 22 22 21
3 1 2 4 5 3 4 3 2 3 6 8 7 2 2 6 8 6 5 5 6 8 7 7 7 5 0 1 5 3 2 5 6 6 7 7 8 9 9 9 11 12 14 16 17 19 21 22 24 28 32 35 35 34 34 33 32 30 31 31 31 30 29 29 30 31 33 33 31 29 29 28 28 28 27 27 26 25 25 25 25 25 25 24 24 23
3 3 3 4 5 3 3 1 2 5 7 6 2 1 2 5 7 5 5 6 7 7 6 5 4 5 4 3 5 3 1 3 4 4 6 7 8 9 8 8 8 10 11 13 15 18 20 22 24 27 30 32 33 33 34 33 32 31 31 31 31 30 30 30 30 30 32 32 31 29 29 28 28 28 27 27 27 26 26 26 27 27 26 25 25 25
2 4 2 1 4 4 2 0 4 7 6 2 1 2 4 6 7 7 7 6 6 7 6 6 5 7 6 5 6 4 1 2 3 3 5 6 7 7 7 6 6 7 9 11 14 16 18 20 22 24 26 28 29 29 30 31 31 31 31 31 31 31 31 31 30 30 30 30 30 30 29 28 28 27 27 27 27 27 27 28 28 28 27 27 27 27
3 4 2 1 4 4 1 3 7 6 3 1 3 2 3 4 5 8 9 7 6 7 8 8 8 8 8 5 5 5 3 3 4 3 4 7 7 7 6 5 5 6 8 10 12 14 16 19 20 21 22 24 25 26 27 29 29 29 29 29 30 30 31 31 30 29 29 29 29 29 29 28 28 27 28 27 27 27 28 29 30 29 28 28 29 29
4 4 3 2 4 4 4 6 6 3 2 3 5 4 2 2 3 5 5 3 4 6 7 7 6 6 8 8 5 4 3 4 6 6 7 7 7 7 5 4 4 5 7 8 10 13 15 17 18 17 18 20 23 25 27 26 26 26 26 27 28 29 30 31 30 28 28 28 28 28 28 28 27 28 28 28 28 28 29 30 30 29 29 29 30 31
6 4 3 4 4 4 6 6 5 5 3 3 3 4 3 2 4 5 3 2 5 6 6 7 7 4 5 7 6 3 2 5 7 6 8 10 9 7 4 2 2 4 5 7 8 10 13 14 13 14 15 18 21 24 24 23 23 23 23 23 25 27 28 30 30 29 28 28 28 27 27 27 27 28 30 30 29 29 30 30 31 30 30 30 30 31
5 4 3 4 4 3 6 7 6 7 4 2 3 5 4 4 4 4 4 1 6 11 10 9 9 7 5 6 5 5 4 6 5 1 6 8 8 7 5 3 3 3 4 6 7 9 11 12 12 13 15 17 19 22 22 22 22 22 22 23 23 24 26 28 29 29 28 28 28 27 27 26 27 27 28 29 29 30 30 31 31 31 30 30 30 31
2 3 3 5 5 4 6 6 6 6 1 5 7 8 8 6 2 3 5 1 8 15 15 11 10 10 8 6 5 5 6 5 2 5 5 6 7 7 5 4 4 4 5 6 8 8 9 10 12 12 14 16 19 20 21 22 21 21 22 23 23 24 26 27 28 28 28 28 27 26 25 26 26 27 28 28 29 29 30 30 31 31 31 31 31 32
2 1 3 5 6 5 6 6 5 2 4 9 11 12 11 6 1 4 4 1 11 20 18 14 13 12 11 8 4 3 5 5 6 5 0 3 5 6 5 4 4 5 5 6 8 8 8 9 11 12 14 17 18 20 21 21 21 21 21 21 22 24 26 27 27 27 26 26 26 25 25 26 26 26 26 27 27 28 28 30 31 31 31 32 31 31
4 2 1 3 5 5 5 6 5 2 4 11 14 12 11 5 3 3 3 6 17 22 18 16 16 13 12 10 4 1 2 4 7 7 5 1 2 4 5 4 4 4 5 6 8 9 8 9 10 10 12 15 16 19 20 21 21 21 21 21 22 24 25 26 26 25 25 26 26 26 26 25 25 25 24 25 26 27 28 29 29 30 31 31 29 29
5 3 1 1 4 4 4 6 5 3 5 14 14 12 13 7 1 4 9 13 18 20 19 18 16 13 14 12 6 4 5 6 7 6 5 2 2 4 4 4 3 4 5 7 9 11 10 10 10 10 11 12 14 17 19 21 22 21 21 22 23 23 22 23 23 24 25 25 26 26 25 24 24 24 24 24 25 26 27 26 26 28 29 27 26 28
5 4 2 4 5 5 3 4 5 2 7 16 12 8 11 8 4 8 13 15 16 17 18 18 15 15 16 14 10 9 8 6 6 6 6 4 1 3 3 3 3 4 6 7 9 11 11 11 10 11 12 12 14 16 18 20 21 21 22 22 21 20 19 20 20 21 21 22 23 23 22 22 22 22 22 23 24 24 24 23 24 26 27 27 28 30
3 4 3 4 4 4 3 3 3 2 6 13 10 6 8 9 8 10 13 15 17 18 17 16 16 17 18 16 14 10 6 5 6 7 8 7 5 4 2 1 2 3 6 8 10 11 11 11 11 12 12 13 13 15 16 18 20 21 21 21 19 18 18 18 17 16 16 17 17 18 18 19 20 21 22 22 22 21 21 23 25 27 28 29 30 30
4 4 3 2 3 3 3 4 4 2 2 3 7 6 6 8 10 12 13 15 17 18 18 17 17 18 19 18 14 9 6 6 7 7 8 9 8 7 6 4 2 1 4 8 11 13 12 12 12 13 13 13 13 14 14 16 18 19 20 19 18 17 17 16 16 15 15 16 16 17 18 19 20 21 21 22 22 21 22 23 25 26 27 26 25 24
5 4 2 3 3 3 2 2 4 5 3 2 3 3 3 5 8 11 12 14 15 16 17 17 17 17 18 18 15 11 9 8 7 7 8 8 8 8 7 6 5 3 1 5 10 13 13 13 14 14 14 14 14 14 14 14 15 16 17 16 16 17 17 17 17 17 18 18 17 18 19 19 20 20 21 21 21 20 20 20 20 20 21 20 19 18
4 4 4 3 4 4 2 2 7 10 8 4 3 2 5 7 8 8 9 11 13 14 15 17 18 18 17 18 18 16 13 12 10 8 7 7 7 7 7 6 6 4 2 1 6 9 11 12 13 13 14 14 14 14 14 14 14 15 16 16 16 17 18 18 18 19 18 18 17 16 17 17 17 17 17 17 16 15 15 15 15 15 15 15 15 14
2 4 4 3 4 4 2 3 9 11 10 6 6 7 9 11 8 5 5 7 9 11 14 17 20 20 19 19 20 18 17 17 16 13 10 8 8 7 6 7 7 5 4 2 3 6 8 11 12 13 13 14 14 14 14 14 14 15 15 14 14 15 16 16 16 16 15 15 14 13 13 13 13 13 13 13 13 12 12 13 13 13 13 13 13 11
3 3 4 4 3 2 2 4 8 7 8 8 8 8 9 10 8 5 4 4 5 7 11 16 19 22 22 22 21 20 20 22 21 19 15 13 11 9 8 7 8 8 8 8 7 6 7 8 10 11 12 13 13 13 13 13 13 13 13 13 13 13 14 13 12 13 13 12 12 12 12 12 13 12 12 12 11 11 11 11 11 11 11 11 12 11
4 3 5 5 3 3 4 7 8 5 3 6 8 7 7 8 6 5 5 7 7 7 10 14 16 17 20 22 22 22 23 24 24 23 21 20 18 15 11 9 9 10 11 12 11 10 10 9 8 8 8 9 9 8 9 9 9 10 10 11 11 11 11 11 11 11 11 10 11 11 11 10 10 10 9 9 9 9 10 10 10 10 9 9 9 9
5 4 5 5 4 5 7 9 9 5 2 4 5 4 4 5 6 7 9 11 12 12 14 16 17 17 17 19 20 20 21 22 23 23 23 23 22 21 19 16 13 12 13 13 12 12 12 12 12 11 11 10 8 7 5 5 5 5 6 7 8 8 8 8 8 8 9 10 12 12 10 8 9 9 8 8 9 8 7 7 8 9 9 9 9 9
Wind_Direction
166 176 208 201 177 184 199 202 200 139 144 150 169 179 176 174 154 146 141 157 182 200 192 193 195 168 170 170 173 176 180 193 193 186 190 188 185 185 183 179 175 173 171 169 171 170 166 166 168 165 162 165 166 168 168 163 158 158 155 139 117 109 118 137 146 145 142 139 137 135 131 126 122 116 109 103 95 84 72 65 58 54 53 51 49 46
178 217 219 215 190 182 193 202 215 204 162 158 157 150 168 163 125 135 147 157 183 214 177 181 215 184 170 166 168 176 182 192 193 190 192 191 188 186 185 183 178 173 170 170 171 170 169 168 169 166 165 170 172 172 172 168 163 161 159 148 129 125 134 144 150 150 148 144 142 140 135 132 127 118 112 106 99 84 68 61 58 56 54 52 49 47
181 239 235 228 209 184 183 191 207 208 192 192 161 160 152 130 119 127 157 163 179 224 174 180 224 185 164 167 167 178 190 194 193 193 193 192 190 190 189 185 180 175 172 173 173 172 172 171 170 170 170 174 177 177 175 173 169 164 164 159 146 144 146 150 154 154 154 150 147 145 141 138 135 129 124 116 104 87 67 57 57 57 55 54 52 49
197 225 226 219 201 184 184 190 207 214 213 207 168 193 124 135 162 141 166 177 180 226 232 191 225 181 161 171 172 183 194 193 192 194 195 196 195 193 192 188 183 179 175 176 176 176 175 174 175 175 174 175 179 180 179 177 173 168 170 168 161 159 154 155 159 157 159 157 152 150 147 145 142 136 127 116 102 85 67 55 55 57 55 54 54 52
205 191 198 202 190 200 199 186 199 212 231 210 164 242 102 142 186 122 156 175 181 212 227 229 232 189 174 185 181 183 191 195 194 194 197 200 200 196 194 193 190 186 181 180 180 180 179 178 180 181 179 179 181 183 182 182 178 173 174 172 168 167 162 160 163 163 163 160 156 153 150 148 145 137 126 119 107 86 67 55 54 56 54 53 53 53
211 148 168 195 190 205 209 184 183 188 238 202 161 206 96 139 141 121 151 171 190 203 195 232 253 177 172 193 186 175 186 195 194 194 197 199 199 199 197 196 196 193 188 186 185 183 181 181 183 185 184 184 184 187 187 186 184 178 176 175 172 172 170 168 169 169 166 163 162 157 152 152 149 144 140 135 126 104 79 63 59 57 54 52 51 52
188 141 206 219 193 198 217 200 173 178 211 182 146 186 146 136 137 143 166 193 233 133 149 220 267 230 175 192 185 176 184 191 192 196 197 197 198 199 198 197 197 196 192 192 190 186 183 183 184 186 188 187 186 188 189 188 188 184 182 181 179 177 176 175 175 174 171 169 169 163 158 159 155 153 155 148 137 118 87 71 64 59 54 51 50 51
164 180 204 215 204 206 213 182 159 187 218 111 127 177 154 143 149 157 184 220 321 62 165 204 254 283 217 171 171 178 185 189 192 197 198 198 199 198 199 198 197 197 195 194 191 188 187 186 186 188 190 189 186 188 189 190 190 187 187 187 185 184 181 181 182 180 177 176 175 171 167 167 163 162 165 154 137 114 88 76 65 56 52 50 48 48
108 87 28 254 216 204 168 74 138 185 199 105 141 154 142 141 144 164 204 205 355 260 194 167 220 266 211 134 157 178 190 197 198 200 199 198 199 198 198 198 197 197 196 195 193 191 191 190 189 190 190 190 188 188 190 192 190 188 189 189 188 186 185 188 189 184 183 182 179 178 174 170 168 169 167 161 147 117 96 83 63 54 51 48 46 46
23 13 348 303 255 151 97 85 134 170 105 126 143 129 130 136 139 182 236 156 225 262 82 112 207 272 51 134 163 180 198 209 204 202 201 199 199 198 198 197 197 196 195 196 195 193 194 193 192 192 190 191 191 189 191 194 191 189 190 190 190 189 188 193 195 188 187 187 183 182 179 174 174 173 170 171 162 133 110 84 59 52 49 44 43 43
286 310 306 295 329 91 103 102 105 108 115 137 146 136 138 139 148 201 247 247 239 206 79 86 220 279 281 142 154 178 205 213 205 201 199 200 200 199 199 197 195 195 195 195 195 194 195 194 194 193 192 193 194 192 192 193 193 192 193 192 191 191 191 195 197 193 191 190 187 185 184 181 180 180 179 179 172 148 126 87 58 47 43 41 39 39
235 196 148 115 111 119 117 105 97 120 137 153 162 156 158 150 173 201 171 214 253 103 88 80 219 258 263 112 127 163 184 198 202 199 194 197 199 198 198 198 195 195 195 194 194 194 194 193 193 193 194 195 196 195 193 192 193 195 197 195 193 192 193 195 196 196 195 193 191 190 189 188 187 188 187 186 185 172 163 129 59 41 37 40 38 36
154 108 109 124 160 168 137 114 120 140 163 190 186 187 214 177 169 217 167 190 312 75 82 89 219 240 256 286 256 193 185 190 199 200 193 195 198 197 196 197 196 195 195 194 194 193 193 193 193 193 194 195 197 199 196 194 195 196 198 198 195 193 193 194 195 196 197 195 195 195 192 191 193 195 191 189 191 186 186 195 76 34 29 35 38 35
133 105 149 158 179 202 196 147 158 163 184 203 195 219 258 342 53 289 114 95 39 81 88 135 214 239 225 213 227 178 169 178 191 200 197 196 197 196 195 195 195 195 195 194 194 194 193 192 193 193 195 196 199 202 199 197 196 197 200 199 196 195 193 193 194 195 197 197 197 197 195 193 195 198 195 190 190 192 195 204 225 345 9 26 35 35
147 133 168 169 151 180 195 270 300 134 152 176 244 279 281 336 327 318 9 22 13 53 108 147 221 295 350 163 160 135 155 185 208 206 196 194 195 196 195 194 193 194 195 195 195 195 194 192 193 194 196 197 200 204 202 199 199 199 201 200 197 195 193 193 193 194 197 198 197 197 196 196 196 200 201 197 195 198 203 212 232 256 347 17 26 31
231 105 136 135 92 177 187 200 10 131 131 147 228 256 283 354 334 337 1 355 338 327 101 169 246 334 22 141 184 193 214 218 221 206 192 189 189 191 194 194 193 193 194 194 195 195 194 193 194 195 198 198 200 205 204 201 200 200 201 201 199 196 196 194 194 194 195 197 197 196 197 198 199 201 204 205 204 205 210 220 235 250 5 27 19 26
203 104 119 150 163 187 197 151 164 214 151 176 203 176 73 7 309 305 350 275 270 298 47 9 280 112 71 65 142 167 201 182 184 190 185 183 181 184 191 193 193 192 193 193 194 195 194 193 194 197 199 199 199 202 205 204 202 202 201 199 199 198 198 196 194 194 195 196 197 197 197 200 202 204 205 206 208 213 220 223 232 248 270 49 18 16
265 108 118 168 169 148 161 159 152 327 308 201 176 110 120 103 295 274 275 232 244 339 63 24 352 36 56 75 126 153 162 143 158 171 172 175 177 180 188 192 192 192 192 193 194 194 193 193 195 198 198 201 203 203 205 207 204 203 203 199 199 199 198 197 194 194 195 196 198 199 200 201 203 205 207 208 212 220 225 226 231 236 216 27 340 354
288 132 116 146 157 140 171 191 159 142 270 297 23 126 193 270 179 190 291 316 329 1 54 33 355 15 20 40 101 129 128 133 154 164 168 174 178 182 186 189 191 192 191 193 194 193 192 193 195 199 198 200 206 205 203 207 205 202 203 200 199 200 198 195 193 193 195 197 199 201 203 203 202 203 206 210 216 220 222 229 238 230 209 250 301 330
278 268 116 125 137 147 179 209 180 150 200 272 213 182 234 320 348 0 334 323 315 341 25 5 349 75 50 25 27 67 97 137 158 172 180 181 182 186 186 186 188 190 191 192 193 192 191 193 195 201 202 199 203 203 199 204 205 201 201 199 198 199 197 194 194 194 196 198 200 203 204 204 203 203 207 211 216 219 222 231 240 234 220 242 283 311
234 277 113 122 141 169 194 219 199 174 185 209 208 199 194 206 281 287 261 306 319 326 13 1 343 54 61 31 8 40 75 166 171 181 190 185 187 188 185 185 185 187 190 190 192 191 190 193 196 201 204 199 199 200 198 202 206 201 200 199 197 198 197 196 197 197 197 199 201 204 204 204 203 203 207 211 216 220 225 229 231 229 227 243 273 296
238 276 179 139 167 183 183 201 239 229 224 238 232 220 206 201 248 255 213 176 291 309 349 340 321 27 65 45 5 23 33 210 192 194 194 187 190 188 183 184 184 185 188 188 191 191 189 193 196 198 202 199 196 197 196 200 203 200 199 199 198 199 198 198 200 200 200 201 202 204 204 204 204 204 207 212 217 221 226 229 228 225 232 254 269 281
340 294 261 206 186 134 112 133 263 288 273 271 268 270 262 230 254 276 298 63 238 266 328 290 287 47 73 62 6 11 345 278 223 210 204 191 190 189 183 182 183 185 188 188 190 190 188 193 196 197 199 197 194 195 197 199 202 200 200 200 200 200 198 199 202 202 202 204 204 204 203 203 205 206 209 214 219 221 225 231 233 231 240 257 266 272
218 264 256 231 183 118 117 137 147 221 244 248 240 245 260 250 264 294 317 338 293 271 268 262 270 50 81 125 204 243 256 248 227 215 208 193 186 189 185 181 182 185 187 187 188 187 186 190 194 195 197 196 194 197 199 202 203 201 201 202 203 203 199 199 202 203 204 206 205 205 204 204 206 209 212 216 221 224 226 231 237 239 247 259 264 267
201 244 251 249 210 178 179 172 156 186 226 242 229 213 244 258 262 274 290 290 270 273 295 291 286 59 129 189 197 219 254 233 199 203 202 189 183 186 187 183 181 182 183 183 184 183 183 188 192 194 196 196 195 198 202 206 205 203 203 205 205 204 201 199 201 203 205 206 207 206 206 207 208 212 215 217 222 226 229 234 239 243 249 257 262 265
241 250 238 260 251 217 211 180 112 272 206 224 242 218 235 242 232 233 266 265 260 263 277 273 281 3 13 276 221 93 305 249 165 172 186 185 185 186 187 186 181 182 183 182 183 183 186 192 195 195 198 197 195 198 204 208 207 204 206 209 208 206 203 201 201 203 205 207 208 208 209 210 211 214 217 218 222 227 231 235 240 245 250 257 261 262
246 246 244 280 287 292 333 41 39 347 291 247 240 214 228 233 225 230 247 263 294 303 269 264 281 311 318 304 320 28 331 248 158 166 177 173 180 184 184 185 183 184 185 183 184 186 190 196 197 197 200 200 198 201 205 209 208 205 206 211 210 207 205 204 204 204 206 207 209 210 212 213 214 216 219 221 224 227 231 235 241 247 252 258 261 263
247 234 207 247 259 284 339 40 47 317 291 288 292 245 224 218 220 234 246 271 320 292 279 324 324 298 302 304 317 358 349 283 166 177 180 167 174 180 179 183 185 185 186 186 188 190 194 199 199 200 204 205 203 205 208 210 208 206 208 211 212 209 208 207 207 207 207 209 211 212 214 215 217 219 221 223 225 228 232 235 241 248 252 257 262 265
263 247 143 219 235 216 27 51 37 292 279 282 286 273 246 222 219 233 246 256 264 267 287 346 328 291 295 301 309 352 355 309 126 152 166 159 165 172 177 184 187 188 189 190 192 194 198 202 202 202 207 208 207 209 210 209 207 207 209 211 212 211 210 210 210 209 210 211 213 215 216 217 219 221 223 225 227 229 233 236 241 247 252 256 261 266
273 255 111 250 228 147 108 107 158 265 268 269 270 265 256 241 230 239 256 263 261 270 285 301 294 288 297 306 312 340 335 279 193 153 169 164 165 173 180 186 190 193 195 195 196 197 199 203 204 205 208 209 209 210 210 208 206 207 210 212 212 212 213 213 213 212 212 214 216 217 217 218 221 223 224 225 227 230 233 237 241 247 251 256 260 264
269 236 106 247 228 156 127 142 172 259 272 275 275 275 283 275 256 247 259 264 258 269 277 279 282 286 291 296 297 305 270 235 205 185 183 174 171 180 186 191 195 197 200 200 198 198 199 199 201 205 209 209 208 209 210 209 207 206 209 212 212 213 213 214 216 216 214 216 218 219 219 220 222 225 226 227 228 230 234 238 243 247 250 254 258 262
281 236 174 237 240 178 159 187 206 252 264 272 283 317 327 284 273 262 254 246 247 265 271 264 274 292 0 254 272 267 243 236 212 187 187 186 182 186 190 197 201 202 204 204 200 198 198 196 198 205 211 211 210 210 211 211 209 207 208 211 212 213 213 214 217 219 218 218 219 219 221 222 224 226 228 229 231 232 235 239 243 247 250 252 256 259
305 266 225 244 259 227 185 193 277 267 265 267 283 3 307 265 267 273 260 244 241 254 266 264 285 326 348 318 294 296 300 277 249 196 196 198 191 193 196 202 208 206 206 207 202 199 199 196 199 208 214 215 213 214 215 215 213 211 212 214 214 214 214 215 218 219 220 220 220 220 221 224 225 228 230 231 234 235 238 240 243 247 250 253 256 259
301 283 273 273 265 244 183 244 278 268 273 292 69 349 305 285 285 284 273 262 243 235 255 275 287 299 303 301 302 309 310 267 264 225 206 201 196 200 203 207 214 210 207 207 204 202 200 197 203 212 216 215 213 215 219 220 219 217 216 216 216 214 215 217 219 220 220 221 221 221 223 225 227 229 231 233 235 237 239 241 244 247 250 253 257 260
268 271 277 264 263 265 278 266 262 268 297 58 98 48 322 290 293 284 278 289 280 248 253 271 284 296 302 301 302 301 286 263 268 255 220 204 197 195 196 201 211 208 206 207 206 203 199 199 206 213 215 213 209 207 214 220 220 217 216 216 216 215 216 218 219 221 221 221 222 222 224 226 228 230 233 235 237 239 241 243 245 247 250 254 258 261
250 258 263 259 260 266 269 257 260 307 15 133 124 75 9 270 295 294 285 319 326 288 275 281 294 316 318 314 316 312 297 282 271 249 217 199 189 186 191 206 219 214 206 205 207 205 202 205 211 214 213 212 209 207 209 213 215 216 215 215 216 217 218 220 220 221 223 224 224 224 224 226 228 231 234 237 238 240 242 244 246 249 252 255 259 263
234 243 240 243 243 251 267 264 270 297 293 156 118 41 13 324 329 325 313 74 42 4 339 316 312 326 327 322 330 338 305 276 268 235 192 184 180 175 179 184 197 207 199 194 198 201 204 210 214 213 209 208 210 211 210 209 211 214 213 213 215 216 218 221 222 221 223 226 228 227 227 228 230 233 237 239 239 241 244 247 250 252 255 258 262 266
232 245 240 245 233 235 265 268 269 276 270 101 45 26 13 327 318 310 274 161 53 22 6 341 324 325 330 332 347 351 307 274 276 173 155 171 167 157 156 141 137 162 174 176 181 186 194 201 204 207 205 202 206 212 213 213 215 216 214 213 214 215 217 221 223 224 225 229 231 231 231 231 232 235 238 240 241 243 246 250 253 256 258 261 264 269
198 231 235 248 241 234 254 259 266 272 306 44 11 359 356 337 294 256 253 183 33 7 358 347 332 330 329 331 356 353 311 288 352 73 122 172 163 150 152 140 131 143 149 155 164 170 178 185 189 197 200 198 201 207 211 215 217 217 216 216 215 215 217 220 223 224 226 230 233 233 233 234 235 236 239 241 244 247 249 253 256 259 261 264 268 272
102 209 228 243 247 243 246 254 264 265 46 20 353 347 355 357 255 250 248 7 355 345 346 343 332 330 326 320 336 353 322 328 3 17 352 191 163 154 156 143 135 143 143 147 157 162 171 181 185 192 195 194 196 201 206 212 215 216 217 217 216 217 219 222 224 225 227 231 233 234 235 238 240 241 243 246 250 253 255 257 260 263 266 268 269 270
34 6 258 255 262 248 240 257 259 150 45 355 342 346 346 325 245 276 306 326 327 327 334 337 329 329 329 321 318 352 334 341 339 327 318 294 162 163 171 166 151 150 153 157 160 163 171 182 185 190 194 194 195 199 203 207 211 213 214 214 217 219 221 224 225 226 228 231 234 237 239 242 245 246 249 251 254 256 258 260 263 264 264 264 265 267
5 342 356 0 311 281 247 266 257 157 32 347 340 356 356 334 250 343 332 322 323 326 331 333 332 336 335 325 313 309 321 340 348 351 0 2 188 183 197 205 191 182 181 173 166 166 170 177 178 178 185 192 197 200 203 205 207 208 210 213 218 220 222 225 227 229 231 233 237 240 242 244 246 247 249 251 251 253 255 258 260 261 261 263 266 270
3 328 355 34 348 304 271 286 270 207 11 354 349 13 19 18 26 351 337 336 344 344 336 332 338 345 341 331 325 324 328 349 13 34 38 36 121 169 204 224 221 211 202 190 176 170 171 176 176 174 178 186 192 196 202 205 205 207 209 213 218 221 223 225 225 227 231 233 236 240 240 242 244 246 247 249 251 254 256 257 260 263 266 269 270 271
23 345 347 29 15 324 303 350 353 305 350 2 16 46 40 33 22 1 353 356 360 356 347 339 340 346 344 336 329 328 342 20 40 51 47 46 60 75 95 171 214 207 199 194 185 175 172 174 175 176 180 185 189 193 200 205 207 210 212 214 218 221 223 223 222 224 228 229 231 236 238 239 243 245 247 249 253 256 256 257 260 264 268 271 272 272
41 32 352 344 13 355 326 347 7 316 289 28 63 63 33 18 15 8 5 5 3 1 359 352 345 346 347 342 336 337 1 28 47 59 53 50 57 65 76 84 78 139 190 198 192 182 175 172 173 177 184 190 193 194 200 206 209 213 216 217 220 221 220 220 221 223 226 229 232 237 239 240 243 246 249 251 252 255 255 257 261 264 267 269 270 270
54 37 336 307 337 351 329 328 349 336 299 215 139 98 23 357 1 1 2 7 7 4 4 5 2 360 359 357 355 357 4 15 39 65 63 60 65 71 77 74 64 72 166 210 203 194 185 176 173 177 185 192 197 200 204 209 212 218 222 221 218 216 215 216 221 227 233 237 237 235 234 235 237 240 244 246 248 251 254 255 258 261 264 266 267 267
51 341 317 332 345 337 315 326 347 356 359 329 292 342 351 342 349 357 357 2 5 4 11 21 23 19 17 15 11 7 6 11 22 40 58 70 73 72 75 74 66 61 59 204 205 198 189 181 178 179 183 186 190 196 204 210 216 224 227 222 217 216 218 223 229 234 238 239 235 229 225 225 227 230 235 241 245 250 254 258 262 265 266 266 266 264
23 321 321 351 352 341 340 342 352 16 42 31 352 347 343 338 347 5 1 358 0 5 19 33 37 36 34 32 25 19 18 20 20 20 31 53 67 68 70 73 72 70 72 99 157 171 175 179 179 178 179 181 181 186 194 202 211 222 227 225 220 218 221 225 227 227 226 223 221 221 221 224 229 233 239 245 249 252 255 260 264 265 264 261 254 246
309 293 327 330 314 327 24 0 359 31 69 54 25 10 354 349 355 2 2 11 19 23 34 45 49 48 47 46 41 34 27 24 21 19 22 36 53 64 67 68 74 82 87 89 98 118 144 165 174 175 178 180 181 183 187 193 202 210 214 217 218 218 220 222 219 216 213 211 212 218 222 225 230 234 238 243 245 247 251 255 256 254 252 251 246 238
320 312 336 324 315 351 9 359 352 357 58 43 25 10 358 2 13 26 41 51 59 66 67 64 62 60 57 56 54 49 41 34 30 28 29 34 44 56 66 73 78 82 85 86 89 96 103 111 123 140 155 163 172 182 189 196 205 209 209 210 211 211 214 214 210 205 199 196 200 206 209 214 218 218 222 228 234 239 244 248 247 240 236 236 236 230
355 346 340 327 322 337 348 350 344 333 21 46 35 27 32 38 44 53 64 69 68 71 73 69 64 61 60 61 60 56 50 44 38 34 31 32 39 49 57 66 75 79 80 81 83 85 89 94 98 102 105 108 113 122 139 161 181 193 198 196 188 179 175 177 176 171 168 175 184 184 179 182 192 193 196 205 213 219 227 233 236 233 229 228 227 224
Height
1500 1504 1506 1503 1503 1504 1499 1495 1494 1493 1493 1496 1497 1498 1499 1501 1504 1504 1505 1507 1508 1512 1513 1511 1512 1512 1513 1516 1521 1525 1528 1528 1528 1529 1530 1531 1532 1532 1533 1534 1535 1536 1538 1540 1541 1543 1544 1545 1546 1548 1549 1551 1552 1553 1554 1555 1556 1557 1557 1557 1558 1558 1559 1559 1560 1561 1562 1563 1564 1564 1565 1565 1566 1566 1566 1566 1566 1566 1565 1564 1563 1562 1560 1559 1558 1556
1504 1510 1508 1500 1500 1502 1499 1496 1496 1494 1493 1493 1494 1497 1498 1499 1502 1504 1505 1506 1508 1511 1511 1511 1512 1512 1511 1513 1517 1522 1525 1526 1526 1527 1529 1529 1531 1532 1532 1533 1534 1536 1538 1539 1541 1542 1543 1545 1546 1547 1549 1550 1551 1553 1554 1555 1556 1557 1557 1557 1558 1558 1559 1559 1560 1561 1562 1563 1564 1564 1565 1566 1566 1567 1567 1567 1567 1566 1565 1564 1563 1562 1561 1560 1558 1557
1512 1513 1507 1501 1498 1499 1499 1498 1497 1494 1493 1492 1492 1494 1497 1499 1503 1506 1506 1505 1508 1510 1509 1509 1511 1510 1510 1511 1515 1519 1522 1523 1524 1525 1527 1528 1529 1530 1532 1532 1534 1535 1537 1538 1540 1541 1543 1544 1545 1547 1548 1550 1551 1552 1553 1554 1555 1556 1557 1557 1558 1558 1559 1560 1560 1561 1562 1563 1564 1565 1565 1566 1567 1567 1567 1567 1566 1566 1566 1565 1564 1563 1562 1561 1559 1558
1518 1508 1500 1497 1493 1493 1494 1493 1493 1492 1491 1490 1490 1492 1495 1498 1503 1508 1509 1506 1507 1508 1507 1508 1508 1507 1510 1512 1513 1517 1520 1521 1523 1524 1525 1527 1528 1529 1530 1531 1533 1534 1535 1537 1539 1540 1542 1543 1544 1546 1547 1549 1550 1551 1552 1553 1554 1555 1556 1557 1557 1558 1559 1559 1560 1561 1562 1563 1564 1565 1565 1566 1567 1567 1566 1567 1567 1566 1566 1565 1565 1564 1563 1561 1560 1559
1507 1493 1489 1489 1487 1488 1489 1490 1494 1495 1493 1490 1490 1491 1493 1496 1499 1502 1506 1506 1507 1508 1506 1507 1507 1504 1507 1511 1512 1514 1518 1520 1521 1523 1524 1526 1526 1528 1529 1530 1531 1532 1534 1535 1537 1539 1540 1542 1543 1544 1546 1548 1549 1550 1551 1552 1553 1554 1555 1556 1557 1558 1559 1559 1560 1561 1562 1562 1564 1564 1565 1566 1566 1567 1567 1567 1567 1567 1566 1566 1565 1564 1563 1562 1561 1559
1491 1484 1485 1485 1485 1485 1486 1488 1492 1498 1501 1497 1492 1490 1491 1494 1496 1499 1503 1505 1509 1510 1505 1506 1511 1508 1504 1506 1508 1510 1514 1517 1518 1520 1522 1523 1524 1526 1527 1528 1530 1531 1532 1534 1535 1537 1538 1540 1542 1543 1545 1546 1548 1549 1550 1551 1552 1554 1555 1556 1557 1557 1558 1559 1560 1560 1561 1562 1564 1564 1565 1566 1567 1567 1568 1568 1568 1567 1567 1567 1566 1565 1564 1563 1561 1560
1484 1483 1484 1484 1485 1486 1486 1486 1487 1493 1500 1499 1494 1491 1490 1492 1496 1500 1502 1503 1506 1507 1503 1502 1510 1513 1506 1500 1500 1504 1510 1512 1514 1516 1517 1519 1521 1522 1524 1525 1527 1529 1530 1532 1534 1536 1537 1539 1540 1542 1543 1545 1546 1548 1549 1550 1551 1553 1554 1555 1556 1557 1558 1559 1559 1560 1561 1562 1564 1565 1565 1566 1567 1567 1567 1567 1567 1567 1567 1567 1566 1565 1564 1563 1562 1561
1482 1484 1484 1484 1485 1485 1484 1484 1483 1486 1495 1498 1494 1491 1491 1493 1497 1499 1500 1501 1499 1500 1503 1500 1503 1509 1503 1495 1494 1500 1506 1508 1510 1512 1513 1515 1516 1518 1520 1522 1524 1527 1528 1530 1532 1534 1536 1537 1538 1540 1542 1543 1545 1547 1548 1549 1550 1551 1553 1554 1555 1556 1557 1558 1559 1560 1561 1562 1563 1564 1565 1566 1567 1567 1567 1567 1567 1567 1567 1567 1566 1565 1564 1564 1563 1562
1480 1484 1485 1485 1485 1483 1482 1482 1482 1483 1493 1498 1491 1489 1491 1493 1496 1497 1497 1499 1498 1501 1504 1499 1500 1505 1499 1492 1492 1497 1503 1505 1505 1506 1508 1510 1512 1515 1517 1519 1521 1524 1526 1528 1530 1532 1534 1535 1537 1539 1540 1542 1543 1545 1547 1548 1549 1550 1552 1553 1554 1555 1556 1557 1558 1560 1561 1562 1563 1564 1565 1566 1566 1567 1567 1567 1567 1567 1567 1566 1566 1565 1565 1564 1563 1562
1480 1483 1484 1484 1483 1481 1482 1483 1482 1482 1489 1492 1489 1490 1492 1493 1495 1496 1496 1498 1501 1506 1505 1499 1500 1504 1501 1495 1494 1498 1500 1500 1499 1500 1502 1505 1508 1511 1513 1516 1519 1521 1524 1526 1528 1530 1532 1534 1536 1537 1539 1541 1542 1543 1545 1546 1548 1549 1551 1552 1553 1554 1555 1556 1557 1559 1560 1561 1562 1563 1564 1565 1566 1566 1567 1567 1567 1566 1567 1566 1566 1565 1565 1564 1563 1563
1479 1481 1482 1483 1482 1480 1482 1484 1484 1484 1486 1488 1490 1491 1493 1494 1495 1496 1495 1497 1505 1509 1504 1500 1499 1503 1506 1497 1489 1494 1494 1490 1491 1494 1497 1500 1504 1507 1510 1513 1516 1519 1521 1524 1526 1528 1531 1532 1534 1536 1538 1539 1541 1542 1544 1545 1547 1548 1549 1550 1552 1553 1554 1555 1556 1558 1559 1560 1561 1563 1564 1564 1565 1566 1566 1566 1566 1566 1566 1566 1566 1565 1565 1564 1564 1563
1479 1482 1482 1483 1484 1482 1482 1485 1486 1487 1486 1488 1489 1490 1495 1498 1497 1498 1499 1501 1509 1510 1502 1499 1498 1503 1508 1494 1481 1484 1485 1483 1486 1487 1491 1496 1498 1502 1507 1509 1513 1516 1518 1521 1524 1526 1528 1531 1532 1534 1536 1537 1539 1540 1542 1544 1545 1547 1548 1549 1550 1552 1553 1554 1555 1557 1558 1559 1561 1562 1563 1564 1565 1565 1566 1566 1566 1566 1567 1566 1566 1565 1565 1564 1564 1563
1480 1482 1483 1485 1486 1481 1482 1487 1491 1490 1488 1488 1488 1491 1499 1503 1505 1508 1506 1503 1505 1506 1501 1497 1500 1505 1501 1488 1479 1480 1480 1480 1482 1483 1486 1490 1494 1498 1502 1506 1509 1512 1516 1518 1521 1524 1525 1528 1530 1532 1534 1535 1537 1538 1540 1542 1544 1545 1547 1548 1549 1550 1551 1553 1554 1556 1557 1558 1560 1561 1562 1563 1564 1565 1565 1566 1566 1566 1567 1566 1565 1565 1565 1564 1564 1563
1485 1487 1485 1486 1486 1482 1483 1488 1493 1492 1489 1489 1488 1492 1499 1504 1516 1519 1508 1504 1506 1505 1500 1497 1501 1502 1494 1484 1478 1476 1477 1479 1480 1482 1485 1487 1491 1495 1498 1503 1506 1509 1513 1515 1518 1521 1523 1525 1528 1529 1532 1533 1535 1536 1538 1540 1542 1544 1545 1546 1548 1549 1550 1551 1553 1555 1556 1557 1558 1559 1561 1562 1563 1564 1564 1565 1566 1566 1566 1566 1565 1565 1565 1564 1564 1563
1490 1494 1487 1484 1484 1483 1485 1486 1485 1483 1485 1487 1484 1487 1494 1497 1510 1514 1506 1506 1507 1502 1498 1500 1503 1497 1491 1487 1479 1475 1477 1478 1480 1482 1483 1486 1489 1493 1496 1500 1503 1506 1510 1513 1515 1518 1520 1523 1525 1527 1529 1531 1533 1534 1536 1538 1540 1542 1544 1544 1546 1547 1548 1550 1551 1553 1555 1556 1557 1558 1559 1561 1562 1563 1563 1564 1565 1565 1565 1565 1565 1565 1564 1564 1563 1563
1487 1490 1482 1482 1483 1481 1484 1483 1479 1481 1488 1490 1484 1487 1493 1490 1494 1503 1505 1504 1504 1503 1500 1499 1496 1482 1478 1480 1473 1474 1477 1476 1479 1481 1481 1486 1487 1490 1495 1497 1500 1504 1507 1510 1513 1516 1519 1521 1523 1525 1527 1529 1531 1533 1534 1536 1538 1540 1542 1543 1544 1546 1547 1548 1550 1552 1553 1555 1556 1557 1558 1559 1560 1562 1562 1563 1563 1564 1564 1564 1564 1564 1564 1564 1563 1563
1485 1487 1481 1482 1483 1481 1482 1482 1480 1483 1491 1493 1489 1490 1489 1484 1486 1499 1509 1505 1504 1511 1502 1491 1487 1476 1478 1483 1473 1473 1477 1474 1478 1479 1479 1484 1486 1488 1492 1494 1498 1501 1504 1507 1510 1513 1516 1518 1521 1523 1525 1527 1529 1531 1532 1534 1536 1537 1540 1541 1543 1544 1546 1547 1548 1550 1552 1553 1555 1556 1557 1558 1559 1560 1561 1561 1562 1563 1563 1563 1563 1563 1563 1563 1563 1563
1481 1485 1482 1481 1484 1482 1481 1482 1482 1482 1484 1488 1490 1487 1484 1487 1489 1493 1506 1507 1503 1508 1499 1488 1487 1482 1485 1489 1476 1472 1477 1476 1477 1478 1479 1483 1484 1488 1490 1492 1496 1498 1502 1506 1508 1512 1514 1516 1519 1521 1523 1526 1527 1529 1531 1532 1534 1536 1538 1540 1541 1542 1544 1545 1547 1548 1550 1552 1553 1554 1555 1556 1557 1559 1560 1560 1561 1562 1562 1562 1562 1562 1562 1562 1562 1562
1478 1485 1484 1480 1482 1484 1482 1483 1485 1483 1482 1483 1484 1481 1484 1497 1500 1494 1502 1508 1505 1508 1502 1490 1487 1483 1482 1481 1474 1474 1476 1476 1477 1477 1478 1481 1483 1486 1488 1491 1495 1497 1500 1504 1506 1510 1512 1514 1517 1518 1521 1524 1525 1528 1529 1531 1533 1534 1536 1538 1539 1541 1542 1544 1545 1547 1549 1550 1552 1553 1554 1555 1556 1557 1559 1560 1560 1561 1561 1561 1561 1561 1561 1561 1561 1562
1477 1485 1488 1482 1479 1483 1482 1482 1487 1489 1485 1483 1482 1481 1482 1489 1493 1491 1494 1497 1500 1506 1506 1498 1491 1484 1478 1474 1472 1474 1474 1473 1477 1477 1477 1479 1481 1484 1486 1488 1492 1495 1498 1501 1503 1507 1509 1512 1514 1516 1519 1522 1524 1526 1528 1530 1531 1532 1534 1536 1538 1540 1541 1543 1544 1545 1547 1549 1550 1552 1553 1554 1555 1556 1558 1558 1559 1559 1560 1561 1561 1561 1560 1560 1561 1561
1477 1481 1487 1484 1480 1484 1485 1483 1487 1491 1488 1486 1485 1485 1485 1485 1486 1489 1489 1487 1491 1500 1505 1506 1501 1485 1473 1471 1471 1472 1472 1472 1474 1475 1475 1477 1479 1482 1484 1486 1489 1492 1495 1498 1501 1504 1507 1509 1512 1514 1517 1520 1522 1525 1526 1528 1529 1531 1533 1534 1536 1538 1539 1541 1543 1544 1546 1547 1549 1550 1551 1552 1554 1555 1556 1557 1558 1558 1559 1559 1559 1559 1559 1559 1560 1560
1478 1478 1482 1485 1483 1485 1484 1478 1479 1482 1480 1481 1482 1480 1481 1483 1486 1494 1497 1490 1487 1494 1498 1504 1506 1487 1470 1470 1471 1470 1471 1471 1470 1472 1474 1475 1478 1481 1483 1485 1488 1490 1493 1495 1498 1502 1504 1507 1510 1513 1515 1518 1520 1522 1524 1526 1527 1529 1531 1532 1534 1535 1537 1539 1541 1543 1544 1545 1547 1548 1549 1551 1552 1553 1555 1556 1556 1557 1557 1558 1557 1558 1558 1558 1559 1559
1478 1477 1479 1482 1479 1477 1479 1477 1478 1478 1476 1477 1477 1475 1476 1480 1483 1492 1500 1493 1487 1491 1491 1494 1501 1488 1469 1469 1471 1469 1470 1470 1470 1472 1472 1474 1477 1480 1482 1485 1487 1489 1491 1494 1496 1499 1502 1504 1507 1510 1512 1515 1518 1520 1522 1524 1525 1527 1529 1530 1531 1533 1535 1538 1539 1541 1543 1543 1545 1546 1548 1549 1551 1552 1553 1554 1555 1555 1555 1556 1556 1556 1557 1557 1557 1557
1480 1479 1481 1480 1474 1472 1475 1475 1476 1477 1477 1478 1478 1476 1477 1479 1480 1483 1487 1487 1490 1492 1488 1492 1500 1490 1474 1469 1470 1470 1471 1470 1471 1472 1472 1474 1477 1479 1482 1484 1486 1488 1490 1493 1495 1498 1500 1502 1505 1508 1510 1512 1515 1517 1519 1521 1523 1525 1527 1528 1529 1530 1533 1536 1538 1540 1541 1542 1543 1545 1546 1548 1549 1551 1551 1552 1553 1553 1554 1554 1554 1555 1555 1556 1556 1556
1481 1481 1483 1485 1485 1485 1483 1482 1484 1483 1480 1478 1477 1477 1478 1478 1480 1484 1483 1485 1492 1490 1485 1494 1498 1485 1473 1469 1467 1468 1470 1469 1471 1472 1472 1474 1476 1478 1480 1482 1484 1487 1488 1491 1493 1495 1498 1500 1502 1505 1507 1510 1512 1514 1516 1518 1521 1523 1524 1526 1527 1529 1531 1533 1536 1538 1539 1540 1542 1543 1545 1546 1547 1548 1549 1550 1551 1551 1552 1553 1553 1553 1554 1554 1554 1554
1480 1480 1481 1486 1492 1495 1493 1492 1493 1487 1479 1476 1476 1478 1479 1478 1481 1485 1488 1493 1495 1488 1484 1491 1488 1475 1469 1467 1465 1467 1468 1468 1470 1472 1472 1474 1475 1477 1478 1480 1483 1485 1486 1489 1491 1493 1495 1497 1500 1502 1505 1507 1510 1512 1514 1516 1518 1520 1522 1524 1525 1527 1529 1531 1533 1535 1537 1539 1540 1541 1543 1544 1545 1546 1547 1548 1549 1549 1550 1551 1551 1551 1552 1552 1553 1553
1479 1478 1478 1483 1487 1488 1485 1485 1484 1480 1478 1479 1478 1478 1479 1479 1479 1483 1489 1494 1492 1488 1486 1482 1478 1475 1473 1468 1465 1466 1467 1467 1469 1470 1472 1473 1474 1476 1477 1479 1481 1482 1485 1487 1489 1491 1492 1494 1497 1500 1502 1505 1507 1509 1511 1513 1516 1518 1520 1521 1523 1525 1526 1528 1530 1532 1534 1536 1538 1539 1540 1541 1543 1544 1545 1546 1547 1547 1548 1549 1549 1549 1550 1551 1551 1551
1481 1480 1480 1483 1485 1481 1478 1478 1480 1480 1480 1479 1477 1478 1479 1480 1481 1483 1488 1488 1486 1491 1490 1479 1475 1480 1476 1468 1466 1466 1466 1467 1467 1468 1470 1472 1473 1475 1476 1478 1479 1481 1483 1484 1486 1488 1489 1492 1495 1497 1499 1502 1504 1507 1509 1511 1513 1515 1517 1519 1521 1522 1524 1526 1528 1530 1532 1533 1535 1536 1538 1539 1541 1542 1543 1543 1544 1545 1546 1547 1547 1547 1548 1548 1548 1549
1482 1482 1481 1482 1482 1479 1478 1479 1481 1481 1480 1477 1476 1477 1477 1479 1482 1483 1483 1481 1482 1488 1485 1476 1477 1480 1474 1467 1466 1465 1467 1467 1467 1468 1470 1471 1473 1474 1475 1477 1478 1479 1481 1482 1483 1485 1487 1489 1492 1494 1496 1499 1501 1504 1506 1509 1511 1513 1515 1517 1518 1520 1522 1523 1525 1527 1529 1531 1532 1534 1535 1537 1539 1539 1540 1541 1542 1543 1544 1544 1545 1545 1546 1546 1546 1547
1482 1483 1482 1482 1480 1479 1479 1481 1480 1479 1479 1477 1475 1475 1475 1476 1477 1479 1477 1475 1478 1480 1475 1473 1478 1476 1470 1467 1465 1464 1466 1467 1467 1469 1470 1470 1472 1473 1474 1475 1476 1477 1478 1479 1481 1482 1484 1487 1489 1491 1494 1496 1499 1501 1503 1506 1508 1510 1512 1514 1516 1518 1519 1521 1523 1524 1526 1528 1529 1531 1533 1535 1536 1537 1538 1539 1539 1540 1541 1542 1543 1543 1544 1544 1544 1544
1482 1484 1484 1481 1480 1481 1481 1480 1480 1479 1478 1476 1474 1472 1475 1477 1475 1476 1476 1476 1478 1479 1474 1475 1479 1474 1468 1466 1466 1465 1466 1466 1467 1468 1468 1469 1470 1471 1472 1473 1474 1475 1476 1477 1479 1481 1482 1485 1487 1489 1491 1493 1496 1498 1500 1503 1505 1507 1510 1511 1513 1515 1517 1519 1520 1522 1524 1525 1527 1529 1531 1532 1534 1535 1535 1536 1537 1538 1539 1540 1540 1541 1541 1542 1542 1542
1480 1483 1482 1479 1483 1487 1482 1479 1480 1477 1474 1477 1478 1475 1477 1482 1479 1475 1475 1476 1477 1477 1476 1477 1478 1472 1465 1465 1465 1464 1464 1465 1465 1466 1467 1468 1469 1470 1471 1472 1472 1474 1474 1476 1477 1479 1480 1483 1484 1486 1488 1490 1493 1495 1498 1500 1503 1505 1507 1509 1511 1513 1515 1516 1518 1519 1521 1523 1525 1527 1528 1530 1531 1532 1533 1534 1535 1536 1536 1537 1538 1538 1538 1539 1539 1539
1480 1481 1479 1479 1487 1490 1481 1477 1478 1477 1480 1487 1486 1479 1478 1480 1478 1474 1473 1473 1473 1474 1476 1476 1474 1469 1465 1464 1464 1463 1464 1466 1465 1465 1467 1467 1467 1468 1470 1470 1471 1472 1473 1474 1475 1477 1478 1480 1482 1483 1485 1488 1491 1494 1496 1498 1500 1502 1504 1506 1508 1510 1512 1514 1515 1517 1519 1520 1522 1524 1526 1527 1529 1530 1531 1531 1532 1533 1534 1534 1535 1535 1535 1536 1536 1536
1483 1482 1479 1480 1488 1489 1480 1477 1480 1486 1492 1492 1482 1476 1477 1476 1475 1474 1473 1470 1470 1470 1470 1469 1469 1468 1465 1464 1464 1463 1464 1466 1466 1466 1466 1466 1467 1468 1468 1469 1470 1471 1472 1473 1474 1475 1476 1478 1480 1481 1483 1486 1489 1492 1495 1497 1498 1500 1502 1504 1506 1508 1509 1511 1512 1514 1516 1518 1520 1521 1523 1525 1526 1527 1528 1529 1530 1531 1531 1531 1532 1532 1533 1533 1533 1533
1485 1484 1482 1481 1485 1483 1477 1481 1493 1497 1492 1483 1476 1476 1478 1476 1474 1474 1471 1468 1469 1469 1467 1467 1468 1467 1463 1462 1463 1463 1463 1464 1465 1465 1465 1465 1466 1467 1468 1469 1470 1470 1471 1472 1472 1474 1475 1476 1477 1478 1480 1484 1486 1489 1492 1494 1495 1497 1499 1502 1503 1505 1507 1509 1510 1512 1513 1515 1517 1518 1520 1521 1523 1524 1525 1526 1527 1528 1528 1529 1529 1529 1530 1530 1530 1530
1484 1485 1485 1484 1483 1484 1484 1488 1496 1492 1479 1475 1477 1477 1476 1476 1475 1475 1474 1472 1471 1470 1468 1467 1467 1467 1465 1464 1463 1463 1463 1464 1463 1463 1464 1465 1465 1466 1467 1468 1469 1469 1470 1470 1471 1472 1473 1474 1475 1477 1479 1482 1484 1486 1489 1491 1493 1495 1497 1499 1501 1503 1505 1507 1508 1510 1511 1513 1514 1515 1517 1518 1520 1521 1522 1523 1524 1525 1525 1526 1526 1526 1527 1527 1527 1527
1482 1483 1486 1487 1486 1486 1488 1487 1484 1480 1477 1480 1482 1478 1479 1480 1478 1479 1480 1476 1472 1471 1470 1469 1467 1467 1468 1466 1464 1464 1463 1463 1461 1460 1461 1463 1465 1466 1467 1467 1468 1469 1469 1469 1470 1471 1472 1473 1474 1475 1477 1480 1482 1484 1487 1489 1491 1493 1495 1497 1499 1501 1503 1504 1506 1507 1509 1510 1511 1513 1514 1516 1517 1518 1519 1520 1521 1522 1522 1523 1523 1523 1524 1524 1524 1524
1481 1481 1485 1490 1488 1485 1488 1489 1487 1487 1489 1489 1486 1482 1482 1482 1480 1481 1481 1476 1473 1473 1472 1472 1470 1467 1466 1465 1464 1465 1464 1462 1460 1460 1462 1464 1464 1465 1467 1468 1468 1469 1469 1469 1469 1470 1471 1472 1473 1474 1476 1477 1480 1482 1484 1487 1489 1490 1493 1495 1496 1498 1500 1501 1503 1505 1506 1507 1508 1510 1512 1513 1514 1515 1516 1517 1518 1518 1519 1520 1520 1520 1520 1521 1521 1521
1483 1481 1482 1487 1488 1485 1488 1493 1494 1493 1492 1490 1487 1482 1481 1482 1481 1481 1480 1478 1477 1477 1475 1474 1472 1469 1467 1466 1466 1466 1465 1462 1460 1462 1465 1466 1465 1465 1467 1468 1468 1469 1469 1469 1469 1470 1470 1471 1472 1473 1474 1475 1478 1480 1482 1484 1486 1488 1490 1492 1494 1496 1497 1498 1500 1502 1503 1505 1506 1508 1509 1510 1511 1512 1513 1514 1514 1515 1516 1516 1517 1517 1517 1518 1518 1517
1483 1483 1483 1487 1488 1485 1488 1491 1490 1491 1492 1490 1487 1484 1482 1482 1481 1482 1488 1487 1482 1480 1479 1476 1474 1472 1469 1468 1467 1467 1466 1465 1465 1467 1467 1466 1466 1466 1467 1467 1468 1469 1469 1469 1469 1469 1470 1470 1471 1472 1472 1474 1476 1477 1480 1482 1484 1486 1488 1489 1491 1492 1494 1495 1497 1499 1501 1502 1504 1505 1506 1507 1508 1509 1510 1511 1512 1512 1513 1513 1514 1514 1514 1514 1514 1514
1486 1486 1485 1487 1486 1483 1487 1489 1486 1489 1494 1491 1488 1487 1484 1481 1482 1489 1497 1495 1486 1484 1483 1479 1476 1474 1472 1470 1469 1468 1468 1468 1469 1469 1467 1466 1466 1466 1466 1467 1468 1468 1469 1469 1469 1469 1470 1470 1470 1471 1472 1473 1474 1476 1478 1480 1481 1483 1486 1487 1489 1490 1491 1494 1495 1498 1499 1500 1501 1502 1503 1504 1505 1506 1507 1508 1509 1509 1509 1510 1510 1510 1510 1510 1510 1510
1495 1492 1487 1488 1488 1484 1484 1485 1484 1489 1496 1493 1490 1488 1484 1485 1493 1499 1499 1495 1491 1487 1483 1480 1478 1476 1474 1472 1471 1470 1470 1470 1469 1468 1467 1466 1466 1466 1466 1466 1467 1467 1468 1468 1468 1469 1469 1470 1470 1471 1472 1473 1474 1475 1476 1478 1480 1482 1483 1485 1486 1488 1490 1492 1494 1495 1497 1498 1499 1500 1501 1502 1502 1503 1504 1505 1505 1505 1506 1506 1506 1506 1505 1506 1507 1507
1500 1498 1492 1493 1496 1489 1484 1486 1491 1497 1500 1495 1492 1492 1490 1493 1501 1502 1497 1493 1491 1488 1484 1482 1480 1478 1476 1474 1472 1471 1471 1470 1469 1468 1467 1467 1466 1465 1466 1466 1466 1467 1467 1467 1468 1468 1469 1470 1470 1471 1472 1472 1473 1474 1476 1477 1478 1480 1481 1483 1484 1487 1489 1490 1491 1493 1494 1495 1496 1497 1498 1499 1499 1500 1501 1501 1501 1502 1502 1503 1503 1502 1502 1503 1503 1503
1498 1500 1499 1500 1502 1500 1497 1498 1502 1505 1503 1499 1498 1498 1498 1499 1500 1499 1496 1493 1491 1489 1487 1484 1481 1480 1479 1476 1474 1473 1471 1470 1469 1468 1468 1467 1467 1466 1465 1465 1466 1466 1466 1466 1467 1468 1468 1469 1470 1471 1472 1472 1473 1474 1475 1476 1477 1479 1480 1482 1484 1485 1487 1488 1489 1490 1491 1492 1493 1494 1495 1496 1496 1497 1498 1498 1498 1499 1499 1500 1499 1499 1498 1498 1498 1498
1499 1500 1502 1501 1501 1502 1503 1502 1501 1501 1501 1502 1502 1501 1501 1501 1499 1498 1497 1494 1493 1491 1489 1485 1483 1481 1479 1478 1476 1474 1472 1471 1470 1469 1468 1468 1468 1466 1466 1465 1465 1466 1466 1466 1466 1467 1468 1469 1469 1470 1471 1472 1473 1474 1475 1476 1477 1478 1479 1481 1482 1484 1485 1486 1487 1487 1488 1489 1490 1491 1492 1493 1494 1494 1494 1495 1495 1495 1496 1496 1495 1495 1495 1494 1494 1494
1500 1500 1502 1500 1498 1499 1501 1500 1499 1499 1499 1501 1501 1500 1501 1502 1500 1498 1496 1495 1495 1494 1491 1488 1486 1483 1480 1480 1478 1476 1475 1473 1471 1469 1469 1469 1468 1467 1466 1466 1466 1466 1465 1465 1466 1466 1467 1467 1468 1470 1470 1471 1472 1473 1474 1475 1476 1477 1478 1480 1481 1482 1483 1484 1484 1485 1486 1487 1488 1489 1489 1490 1491 1491 1491 1491 1491 1491 1492 1491 1491 1491 1491 1491 1491 1490
1501 1501 1500 1499 1499 1502 1503 1500 1499 1500 1500 1500 1500 1500 1501 1501 1499 1497 1496 1496 1496 1495 1493 1490 1487 1484 1483 1481 1480 1479 1478 1476 1474 1472 1470 1469 1468 1467 1467 1466 1466 1466 1465 1466 1466 1466 1466 1467 1468 1469 1470 1470 1471 1472 1473 1474 1475 1476 1477 1478 1479 1480 1481 1482 1483 1483 1484 1484 1485 1486 1486 1486 1487 1487 1488 1488 1488 1488 1488 1488 1488 1488 1488 1487 1487 1487
1502 1502 1500 1499 1499 1501 1501 1500 1499 1501 1502 1501 1501 1501 1500 1499 1498 1496 1495 1496 1496 1496 1494 1492 1488 1486 1484 1482 1482 1482 1481 1479 1478 1476 1474 1471 1469 1468 1468 1467 1467 1466 1466 1466 1466 1466 1466 1466 1467 1468 1469 1469 1470 1471 1472 1473 1474 1475 1475 1476 1477 1478 1479 1480 1481 1481 1481 1482 1482 1483 1483 1483 1484 1484 1484 1485 1485 1485 1485 1485 1485 1485 1485 1485 1485 1485
1502 1502 1500 1499 1498 1497 1497 1499 1500 1501 1502 1502 1502 1502 1501 1500 1499 1497 1496 1496 1495 1495 1495 1493 1490 1488 1487 1485 1484 1485 1484 1482 1480 1479 1478 1475 1472 1470 1469 1469 1468 1468 1467 1467 1466 1466 1466 1466 1466 1467 1468 1469 1470 1471 1471 1472 1473 1474 1474 1475 1476 1477 1477 1478 1479 1479 1479 1479 1480 1480 1480 1480 1481 1481 1482 1482 1482 1483 1483 1483 1483 1484 1483 1483 1483 1483
1503 1504 1502 1501 1500 1498 1499 1501 1502 1501 1502 1503 1503 1502 1501 1500 1500 1498 1497 1496 1495 1495 1494 1493 1491 1490 1489 1487 1486 1487 1487 1485 1483 1482 1482 1480 1477 1475 1473 1471 1470 1470 1469 1468 1468 1467 1467 1467 1467 1467 1468 1469 1469 1470 1471 1472 1472 1473 1474 1474 1475 1475 1476 1476 1476 1477 1477 1478 1478 1478 1478 1479 1479 1480 1480 1480 1481 1481 1481 1481 1482 1482 1482 1482 1482 1482
1506 1507 1506 1506 1506 1504 1502 1503 1503 1502 1503 1504 1503 1502 1501 1500 1500 1500 1498 1497 1496 1496 1495 1494 1492 1491 1490 1489 1488 1489 1489 1487 1486 1486 1485 1484 1483 1481 1478 1475 1473 1472 1471 1470 1470 1469 1468 1468 1468 1468 1468 1469 1469 1470 1471 1471 1472 1473 1473 1473 1474 1474 1475 1475 1476 1476 1476 1476 1476 1477 1477 1478 1479 1479 1480 1480 1480 1480 1480 1481 1481 1481 1481 1481 1481 1481